Weather History for Monterey, CA

Change the Weather History Date:

Wednesday, December 11, 2013

  Actual Average Record
Temperature  
Mean Temperature 47 °F 52 °F  
Max Temperature 61 °F 61 °F 68 °F (2004)
Min Temperature 32 °F 42 °F 32 °F (2013)
Degree Days  
Heating Degree Days 18    
Month to date heating degree days 208  
Since 1 July heating degree days 975  
Cooling Degree Days 0    
Month to date cooling degree days 0  
Year to date cooling degree days 49  
Moisture  
Dew Point 28 °F    
Average Humidity 53    
Maximum Humidity 79    
Minimum Humidity 26    
Precipitation  
Precipitation 0.00 in - 0.14 in (2011)
Month to date precipitation 0.27  
Year to date precipitation 4.43  
Since 1 July precipitation 1.28  
Sea Level Pressure  
Sea Level Pressure 30.21 in    
Wind  
Wind Speed 3 mph (East)    
Max Wind Speed 9 mph    
Max Gust Speed -    
Visibility 10 miles    
Events      
T = Trace of Precipitation, MM = Missing Value Source: NWS Daily Summary

Daily Weather History Graph

Daily Weather History Graph

Search for Another Location

Airport:

Trip Planner

Search our weather history database for the weather conditions in past years. The results will help you decide how hot, cold, wet, or windy it might be!

Date:

Astronomy

Dec. 11, 2013 Rise Set
Actual Time 7:09 AM PST 4:51 PM PST
Civil Twilight 6:40 AM PST 5:20 PM PST
Nautical Twilight 6:08 AM PST 5:53 PM PST
Astronomical Twilight 5:37 AM PST 6:24 PM PST
Moon 1:22 PM PST (12/11) 1:43 AM PST (12/11)
Length of Visible Light 10h 39m
Length of Day
9h 42m
Waxing Gibbous, 72% of the Moon is Illuminated
Dec 11
Waxing Gibbous
Dec 17
Full
Dec 25
Last Quarter
Jan 1
New
Jan 7
First Quarter

Hourly Weather History & Observations

Time (PST) Temp. Windchill Dew Point Humidity Pressure Visibility Wind Dir Wind Speed Gust Speed Precip Events Conditions
12:54 AM 35.1 °F 32.2 °F 24.1 °F 64% 30.22 in 10.0 mi SE 3.5 mph - N/A   Clear
1:54 AM 35.1 °F - 24.1 °F 64% 30.21 in 10.0 mi Calm Calm - N/A   Clear
2:54 AM 37.0 °F 34.5 °F 23.0 °F 57% 30.21 in 10.0 mi East 3.5 mph - N/A   Clear
3:54 AM 37.9 °F 35.5 °F 23.0 °F 55% 30.20 in 10.0 mi East 3.5 mph - N/A   Clear
4:54 AM 35.1 °F - 23.0 °F 61% 30.19 in 10.0 mi Calm Calm - N/A   Clear
5:54 AM 33.1 °F 30.0 °F 21.9 °F 64% 30.20 in 10.0 mi East 3.5 mph - N/A   Clear
6:54 AM 32.0 °F - 21.9 °F 66% 30.21 in 10.0 mi Calm Calm - N/A   Clear
7:54 AM 35.1 °F - 23.0 °F 61% 30.21 in 10.0 mi Calm Calm - N/A   Clear
8:54 AM 44.1 °F - 24.1 °F 45% 30.22 in 10.0 mi Calm Calm - N/A   Clear
9:54 AM 46.0 °F - 26.1 °F 46% 30.24 in 10.0 mi Calm Calm - N/A   Clear
10:54 AM 53.1 °F - 26.1 °F 35% 30.22 in 10.0 mi Calm Calm - N/A   Clear
11:54 AM 55.9 °F - 28.9 °F 36% 30.20 in 10.0 mi Calm Calm - N/A   Clear
12:54 PM 59.0 °F - 24.1 °F 26% 30.19 in 10.0 mi SW 4.6 mph - N/A   Clear
1:54 PM 60.1 °F - 26.1 °F 27% 30.19 in 10.0 mi WNW 4.6 mph - N/A   Clear
2:54 PM 60.1 °F - 30.0 °F 32% 30.19 in 10.0 mi Calm Calm - N/A   Clear
3:54 PM 59.0 °F - 39.0 °F 48% 30.19 in 10.0 mi Calm Calm - N/A   Clear
4:54 PM 53.1 °F - 39.9 °F 61% 30.19 in 10.0 mi East 4.6 mph - N/A   Clear
5:54 PM 46.9 °F - 35.1 °F 63% 30.21 in 10.0 mi East 3.5 mph - N/A   Clear
6:54 PM 43.0 °F 40.3 °F 32.0 °F 65% 30.22 in 10.0 mi East 4.6 mph - N/A   Clear
7:54 PM 42.1 °F 39.2 °F 35.1 °F 76% 30.22 in 10.0 mi East 4.6 mph - N/A   Clear
8:54 PM 39.9 °F 35.1 °F 33.1 °F 77% 30.23 in 10.0 mi East 6.9 mph - N/A   Clear
9:54 PM 39.0 °F 35.7 °F 30.9 °F 73% 30.22 in 10.0 mi East 4.6 mph - N/A   Clear
10:54 PM 39.0 °F 34.0 °F 28.9 °F 67% 30.22 in 10.0 mi East 6.9 mph - N/A   Clear
11:54 PM 37.9 °F 34.4 °F 28.0 °F 68% 30.22 in 10.0 mi East 4.6 mph - N/A   Clear